Content
SEND FEEDBACK

Daily
Averages
Monthly
Summary
United States of America

BOYES HOT SPRINGS, CALIFORNIA


Home > North America > United States > California
Elevation: 2 meters     Latitude: 38 17N     Longitude: 122 27W

WEATHER
 
SELECT A DAY
Number of Records: 71,797;   Date Range: 4/19/11 - 8/26/14
 
SHARE

PRINT THIS DATA

[ ← Previous Day ]
WEATHER ALMANAC - 13 FEBRUARY, 2013
[ Next Day → ]
[ °F ]   °C
Weather ElementAverageHighLow
Temperature7.5 °C17 °C (1:35 pm)2 °C (6:55 am)
Dewpoint5 °C8 °C (10:35 am)2 °C (6:55 am)
Humidity87.2 %100 % (12:35 am)42 % (3:35 pm)
Barometer1026.1 hPa1028.4 hPa (9:35 am)1023.7 hPa (6:35 pm)
Wind Speed4.3 km/h11.1 km/h (12:55 pm)
Weather ElementAverage
Visibility9.2 km
Wind DirectionSSE (170.3 °)

Weather ElementTotal
Precipitation---
Heating Degree Days8.8 (Base 18.3)
Averaged from 70 records on 13 February, 2013
WEATHER CONDITIONS BREAKOUT
WIND DIRECTION BREAKOUT
WEATHER BY HOUR - 13 FEBRUARY, 2013
[ °F ]   °C
Local TimeTemperatureDewpointHumidityBarometerVisibilityWind DirectionWind SpeedGust SpeedPrecipitationEventsConditions
12:35 AM5 °C5 °C100 %1027.8 hPa0.3 kmCalmOvercast
12:55 AM5 °C5 °C100 %1027.8 hPa0.3 kmNorth (350°)5.6 km/hOvercast
1:15 AM5 °C5 °C100 %1027.8 hPa0.3 kmNorth (350°)5.6 km/hOvercast
1:35 AM5 °C5 °C100 %1027.8 hPa0.3 kmNNW (340°)5.6 km/hOvercast
1:55 AM5 °C5 °C100 %1027.8 hPa0.8 kmNorth (10°)5.6 km/hOvercast
2:15 AM5 °C5 °C100 %1027.8 hPa1.6 kmCalmOvercast
2:35 AM5 °C5 °C100 %1027.8 hPa1.6 kmNorth (360°)5.6 km/hOvercast
2:55 AM5 °C5 °C100 %1027.4 hPa0.3 kmCalmOvercast
3:15 AM4 °C4 °C100 %1027.4 hPa1.3 kmCalmOvercast
3:35 AM4 °C4 °C100 %1027.4 hPa0.3 kmNNE (20°)5.6 km/hOvercast
4:15 AM4 °C4 °C100 %1027.4 hPa0.3 kmNorth (360°)5.6 km/hOvercast
4:35 AM3 °C3 °C100 %1027.1 hPa0.3 kmCalmOvercast
4:55 AM3 °C3 °C100 %1027.4 hPa0.3 kmCalmOvercast
5:15 AM3 °C3 °C100 %1027.4 hPa0.3 kmNorth (350°)7.4 km/hOvercast
5:35 AM3 °C3 °C100 %1027.4 hPa0.3 kmCalmOvercast
5:55 AM3 °C3 °C100 %1027.4 hPa0.3 kmCalmOvercast
6:15 AM3 °C3 °C100 %1027.4 hPa0.3 kmCalmOvercast
6:35 AM3 °C3 °C100 %1027.4 hPa0.3 kmCalmOvercast
6:55 AM2 °C2 °C100 %1027.8 hPa0.3 kmCalmOvercast
7:15 AM2 °C2 °C100 %1027.8 hPa0.3 kmWNW (290°)5.6 km/hOvercast
7:35 AM2 °C2 °C100 %1028.1 hPa0.3 kmCalmOvercast
7:55 AM2 °C2 °C100 %1028.1 hPa0.3 kmWNW (300°)5.6 km/hOvercast
8:15 AM2 °C2 °C100 %1028.1 hPa0.3 kmCalmOvercast
8:35 AM2 °C2 °C100 %1028.1 hPa0.3 kmCalmOvercast
8:55 AM3 °C3 °C100 %1028.1 hPa0.3 kmCalmOvercast
9:15 AM4 °C4 °C100 %1028.1 hPa4.8 kmCalmOvercast
9:35 AM5 °C5 °C100 %1028.4 hPa12.9 kmCalmMostly Cloudy
9:55 AM6 °C6 °C100 %1028.4 hPa14.5 kmWNW (290°)5.6 km/hClear
10:15 AM7 °C7 °C100 %1028.4 hPa14.5 kmNW (320°)5.6 km/hClear
10:35 AM8 °C8 °C100 %1028.4 hPa16.1 kmWNW (290°)5.6 km/hClear
10:55 AM10 °C7 °C82 %1028.1 hPa16.1 kmCalmClear
11:15 AM11 °C7 °C76 %1027.8 hPa16.1 kmCalmClear
11:35 AM12 °C7 °C72 %1027.4 hPa16.1 kmCalmClear
11:55 AM13 °C8 °C72 %1027.1 hPa16.1 kmNW (320°)5.6 km/hClear
12:15 PM14 °C7 °C63 %1026.8 hPa16.1 kmWNW (300°)9.3 km/hClear
12:35 PM15 °C8 °C63 %1026.8 hPa16.1 kmNW (320°)7.4 km/hClear
12:55 PM15 °C7 °C59 %1026.1 hPa16.1 kmNW (310°)11.1 km/hClear
1:15 PM16 °C7 °C55 %1025.7 hPa16.1 kmWNW (300°)9.3 km/hClear
1:35 PM17 °C7 °C52 %1025.4 hPa16.1 kmNW (310°)7.4 km/hClear
1:55 PM17 °C8 °C55 %1025.1 hPa16.1 kmNW (320°)11.1 km/hClear
2:15 PM17 °C7 °C52 %1024.7 hPa16.1 kmNW (310°)11.1 km/hClear
2:35 PM17 °C6 °C48 %1024.7 hPa16.1 kmNW (310°)7.4 km/hClear
2:55 PM17 °C5 °C45 %1024.4 hPa16.1 kmNW (310°)7.4 km/hClear
3:15 PM17 °C5 °C45 %1024.4 hPa16.1 kmWNW (300°)9.3 km/hClear
3:35 PM17 °C4 °C42 %1024.4 hPa16.1 kmWNW (300°)9.3 km/hClear
3:55 PM17 °C5 °C45 %1024 hPa16.1 kmWNW (300°)11.1 km/hClear
4:15 PM16 °C8 °C59 %1024 hPa16.1 kmNW (310°)11.1 km/hClear
4:35 PM14 °C8 °C67 %1024 hPa16.1 kmNW (310°)9.3 km/hClear
4:55 PM13 °C7 °C67 %1024 hPa16.1 kmNW (320°)9.3 km/hClear
5:15 PM12 °C7 °C72 %1024 hPa16.1 kmNW (320°)11.1 km/hClear
5:35 PM10 °C7 °C82 %1024 hPa16.1 kmWNW (300°)9.3 km/hClear
5:55 PM9 °C6 °C82 %1024 hPa16.1 kmNNW (330°)5.6 km/hClear
6:15 PM9 °C6 °C82 %1024 hPa16.1 kmNNW (330°)5.6 km/hClear
6:35 PM7 °C5 °C87 %1023.7 hPa16.1 kmNNW (330°)5.6 km/hPartly Cloudy
6:55 PM8 °C7 °C93 %1024 hPa16.1 kmNNW (330°)5.6 km/hMostly Cloudy
7:15 PM7 °C6 °C93 %1023.7 hPa16.1 kmNNW (340°)5.6 km/hOvercast
7:35 PM7 °C6 °C93 %1024 hPa16.1 kmNNW (340°)7.4 km/hOvercast
7:55 PM7 °C7 °C100 %1024 hPa16.1 kmNorth (360°)7.4 km/hOvercast
8:15 PM6 °C6 °C100 %1024 hPa16.1 kmNorth (360°)5.6 km/hOvercast
8:35 PM6 °C6 °C100 %1024 hPa14.5 kmCalmOvercast
8:55 PM5 °C5 °C100 %1024 hPa14.5 kmNorthOvercast
9:15 PM4 °C4 °C100 %1024 hPa16.1 kmNorthOvercast
9:35 PM4 °C4 °C100 %1024 hPa2.4 kmCalmOvercast
9:55 PM4 °C4 °C100 %1024.4 hPa4.8 kmCalmOvercast
10:15 PM3 °C3 °C100 %1024.4 hPa14.5 kmCalmMostly Cloudy
10:35 PM4 °C4 °C100 %1024.4 hPa8 kmCalmOvercast
10:55 PM3 °C3 °C100 %1024.4 hPa12.9 kmCalmOvercast
11:15 PM3 °C3 °C100 %1024.4 hPa11.3 kmCalmOvercast
11:35 PM2 °C2 °C100 %1024.4 hPa1.3 kmCalmOvercast
11:55 PM3 °C3 °C100 %1024.4 hPa0.8 kmCalmOvercast
Hourly data recorded from KO69, located 0 kilometers away from Boyes Hot Springs, California







STORIES FROM OUR PARTNERS